Voltar ao catálogo

DEB GONETS

AtivoPO
NORAD 47252·DEBRIS·🇷🇺 Russia
Este nome de satélite ainda não foi confirmado por fontes oficiais.

Lançado Dec 3, 2020 de Plesetsk Cosmodrome

Loading…

Próximas Passagens (próximas 24 horas)

TLE

AtualizadoSource: Space-Track

Época: Sep 14, 2026, 09:17 UTC

1 47252U 20091E   26257.38709361  .00000007  00000-0 -19368-4 0  9990
2 47252  82.4946 245.7665 0015723   6.7119 353.4169 12.43066057261196

Acompanhe DEB GONETS em tempo real com AllMySat

Download on the App Store